Location: Silent Lake
(44.9206°N, 78.0708°W)
Time: 02:00:32
(UTC-04:00)

Cosmos 2251 Rocket - Pass Details

Date: 19 April 2018
Orbit: 764 x 792 km, 74.0° (Epoch: 21 May)

Event Time Altitude Azimuth Distance (km) Brightness Sun altitude
Rises 21:09:01 0° 335° (NNW) 3,302 7.7 -11.6°
Reaches altitude 10° 21:11:27 10° 333° (NNW) 2,368 7.0 -12.0°
Maximum altitude 21:16:46 62° 254° (WSW) 891 4.0 -12.8°
Drops below altitude 10° 21:22:01 10° 174° (S) 2,345 5.7 -13.6°
Enters shadow 21:23:04 - 173° (S) 2,743 6.0 -13.7°
